Вернуться в каталог

DMSP 5D-3 F16 DEB

АктивенSSO
NORAD 28055·DEBRIS·🇺🇸 United States

Запущен Oct 18, 2003 с Vandenberg Space Force Base

Loading…

Ближайшие Пролёты (ближайшие 24 часа)

TLE

СвежийSource: Space-Track

Эпоха: Sep 14, 2026, 12:21 UTC

1 28055U 03048B   26257.51520866  .00001360  00000-0  49471-3 0  9998
2 28055  98.7740 276.4508 0001269 205.2388 317.1192 14.34889993187429

Отслеживайте DMSP 5D-3 F16 DEB в реальном времени с AllMySat

Download on the App Store